User: anonymous   Login
Location: Roanoke
(37.2710°N, 79.9420°W)
Time: 08:14:07
(UTC-04:00)
Language:

FENGYUN 3A - Orbit

View from above orbital plane
View from above orbital plane
View from above satellite
View from above satellite

Ground track
Ground track

The orbit data is extracted from the following two-line orbital elements,

1 32958U 08026A   14303.18478321  .00000188  00000-0  10943-3 0  4956
2 32958 098.5386 357.3609 0009277 181.5683 178.5470 14.19484805332990
Epoch (UTC): 30 October 2014 04:26:05
Eccentricity: 0.0009277
inclination: 98.5386°
perigee height: 820 km
apogee height: 834 km
right ascension of ascending node: 357.3609°
argument of perigee: 181.5683°
revolutions per day: 14.19484805
mean anomaly at epoch: 178.5470°
orbit number at epoch: 33299

The dashed part of the orbit path shows where the satellite is in the earth's shadow,  

DLR